Weather History for Milton, FL

Change the Weather History Date:

Monday, March 25, 2013

  Actual Average (KNSE) Record (KNSE)
Temperature  
Mean Temperature 50 °F -  
Max Temperature 60 °F 71 °F 86 °F (2007)
Min Temperature 39 °F 50 °F 30 °F (2008)
Degree Days  
Heating Degree Days 16    
Moisture  
Dew Point 23 °F    
Average Humidity 40    
Maximum Humidity 65    
Minimum Humidity 19    
Precipitation  
Precipitation 0.00 in - - ()
Sea Level Pressure  
Sea Level Pressure 30.03 in    
Wind  
Wind Speed 13 mph (NW)    
Max Wind Speed 21 mph    
Max Gust Speed 32 mph    
Visibility 10 miles    
Events      
Averages and records for this station are not official NWS values.
T = Trace of Precipitation, MM = Missing Value Source: NWS Daily Summary

Daily Weather History Graph

Daily Weather History Graph

Search for Another Location

Airport:

Trip Planner

Search our weather history database for the weather conditions in past years. The results will help you decide how hot, cold, wet, or windy it might be!

Date:

Astronomy

Mar. 25, 2013 Rise Set
Actual Time 6:45 AM CDT 7:02 PM CDT
Civil Twilight 6:21 AM CDT 7:27 PM CDT
Nautical Twilight 5:53 AM CDT 7:55 PM CDT
Astronomical Twilight 5:24 AM CDT 8:23 PM CDT
Moon 5:37 PM CDT (3/25) 5:22 AM CDT (3/25)
Length of Visible Light 13h 05m
Length of Day
12h 17m
Waxing Gibbous, 96% of the Moon is Illuminated
Mar 25
Waxing Gibbous
Mar 27
Full
Apr 2
Last Quarter
Apr 10
New
Apr 18
First Quarter

Hourly Weather History & Observations

Time (CDT) Temp. Windchill Dew Point Humidity Pressure Visibility Wind Dir Wind Speed Gust Speed Precip Events Conditions
12:56 AM 46.9 °F - 30.0 °F 52% 29.89 in 10.0 mi NW 11.5 mph 19.6 mph N/A   Clear
1:56 AM 45.0 °F 38.5 °F 28.9 °F 53% 29.91 in 10.0 mi NW 13.8 mph 20.7 mph N/A   Clear
2:56 AM 44.1 °F 38.1 °F 28.0 °F 53% 29.92 in 10.0 mi NW 11.5 mph 21.9 mph N/A   Clear
3:56 AM 42.1 °F 37.1 °F 28.0 °F 58% 29.94 in 10.0 mi NW 8.1 mph - N/A   Clear
4:56 AM 42.1 °F 37.1 °F 28.0 °F 58% 29.95 in 10.0 mi NW 8.1 mph - N/A   Clear
5:56 AM 39.0 °F 34.0 °F 28.0 °F 65% 29.96 in 10.0 mi NW 6.9 mph - N/A   Clear
6:56 AM 39.0 °F 34.0 °F 27.0 °F 62% 29.99 in 10.0 mi NW 6.9 mph - N/A   Clear
7:56 AM 39.9 °F 32.1 °F 28.0 °F 63% 30.04 in 10.0 mi NW 13.8 mph 20.7 mph N/A   Clear
8:56 AM 43.0 °F 35.1 °F 26.1 °F 51% 30.06 in 10.0 mi NW 17.3 mph 23.0 mph N/A   Clear
9:56 AM 46.0 °F 38.8 °F 25.0 °F 44% 30.06 in 10.0 mi NNW 18.4 mph 25.3 mph N/A   Clear
10:56 AM 48.0 °F - 23.0 °F 37% 30.06 in 10.0 mi WNW 11.5 mph - N/A   Clear
11:56 AM 53.1 °F - 23.0 °F 31% 30.05 in 10.0 mi NNW 15.0 mph 27.6 mph N/A   Clear
12:56 PM 55.9 °F - 19.0 °F 24% 30.03 in 10.0 mi NNW 20.7 mph 28.8 mph N/A   Clear
1:56 PM 57.9 °F - 18.0 °F 21% 30.01 in 10.0 mi NW 18.4 mph 32.2 mph N/A   Clear
2:56 PM 59.0 °F - 17.1 °F 20% 29.99 in 10.0 mi NW 20.7 mph 31.1 mph N/A   Clear
3:56 PM 60.1 °F - 19.0 °F 20% 29.99 in 10.0 mi NW 17.3 mph 28.8 mph N/A   Clear
4:56 PM 57.9 °F - 19.0 °F 22% 29.99 in 10.0 mi NW 17.3 mph 26.5 mph N/A   Clear
5:56 PM 57.0 °F - 15.1 °F 19% 30.01 in 10.0 mi NW 16.1 mph 32.2 mph N/A   Clear
6:56 PM 53.1 °F - 15.1 °F 22% 30.04 in 10.0 mi NW 12.7 mph 28.8 mph N/A   Clear
7:56 PM 51.1 °F - 16.0 °F 25% 30.08 in 10.0 mi NW 12.7 mph 21.9 mph N/A   Clear
8:56 PM 48.9 °F - 19.0 °F 31% 30.12 in 10.0 mi NW 11.5 mph 21.9 mph N/A   Clear
9:56 PM 46.0 °F 40.6 °F 21.0 °F 37% 30.16 in 10.0 mi NNW 11.5 mph 19.6 mph N/A   Clear
10:56 PM 43.0 °F 39.5 °F 21.0 °F 42% 30.17 in 10.0 mi NNW 5.8 mph - N/A   Clear
11:56 PM 41.0 °F 37.1 °F 21.9 °F 47% 30.18 in 10.0 mi NNW 5.8 mph - N/A   Clear